Regional Weather Roundup
Issued by NWS

Home | Current Version | Previous Version | Graphics & Text | Print | Product List | Glossary On
Versions: 1 2 3 4 5 6 7 8 9 10 11 12 13 14 15 16 17 18 19 20 21 22 23 24 25 26 27 28 29 30 31 32 33 34 35 36 37 38 39 40 41 42 43 44 45 46 47 48 49 50
000
ASUS44 KMEG 211010
RWRTN
TENNESSEE HOURLY STATE WEATHER ROUNDUP
NATIONAL WEATHER SERVICE MEMPHIS TN
400 AM CST WED FEB 21 2018

TNZ002-004-019-021-049-052-054-088>092-211100-
WEST TENNESSEE

CITY           SKY/WX    TMP DP  RH WIND       PRES   REMARKS
MEMPHIS INTL   CLOUDY    62  57  83 N14       30.17R
NWS MEMPHIS      N/A     63 N/A N/A MISG        N/A
JACKSON        MOCLDY    71  65  81 SW14G25   30.17R
DYERSBURG      RAIN      52  50  93 NW15G21     N/A
SOMERVILLE     CLOUDY    72  64  78 S14G21    30.15R
COVINGTON      CLOUDY    59  57  94 N10G16    30.19R FOG
UNION CITY     CLOUDY    52  50  93 N15       30.20R FOG
BOLIVAR        CLOUDY    70  64  83 S13G20    30.15S
PARIS          CLOUDY    63  57  82 N9G20     30.15R
HUNTINGDON     CLOUDY    72  64  78 SW14G24   30.12S
LEXINGTON      CLOUDY    70  64  83 S15G23    30.16S
SELMER         CLOUDY    70  64  83 S9G16     30.18R
SAVANNAH       MOCLDY    70  64  83 S15       30.18S
$$

TNZ008-025-027-028-033-062-065-066-211100-
NORTH MIDDLE TENNESSEE

CITY           SKY/WX    TMP DP  RH WIND       PRES   REMARKS
NASHVILLE      MOCLDY    71  62  73 S20G30    30.19F
PORTLAND       CLOUDY    68  63  83 S18       30.17S
CLARKSVILLE    CLOUDY    70  60  70 S15       30.14S
SMYRNA         MOCLDY    70  63  78 S12G22    30.21S
COOKEVILLE     CLOUDY    68  61  77 S9G16     30.24R
GALLATIN       CLOUDY    70  63  78 S7G15     30.21S
CROSSVILLE     CLOUDY    64  59  83 S13G20    30.29S
$$

TNZ061-075-076-078-094-096-097-211100-
SOUTH MIDDLE TENNESSEE

CITY           SKY/WX    TMP DP  RH WIND       PRES   REMARKS
FAYETTEVILLE   CLOUDY    66  66 100 S10       30.26R FOG
TULLAHOMA      CLOUDY    66  64  94 S10G17    30.25R FOG
WINCHESTER     CLOUDY    70  63  78 S6        30.27S
MCMINNVILLE    CLOUDY    70  63  78 SW8G16    30.25R
COLUMBIA       CLOUDY    70  68  94 S18G26    30.19S
SHELBYVILLE    CLOUDY    68  64  88 S14       30.24R
$$

TNZ017-018-042-046-047-211100-
NORTHEAST TENNESSEE

CITY           SKY/WX    TMP DP  RH WIND       PRES   REMARKS
TRI CITIES     MOCLDY    63  57  81 CALM      30.33R
ELIZABETHTON   CLOUDY    59  55  88 CALM      30.35R
$$

TNZ012-013-036-069-073-074-211100-
CENTRAL EAST TENNESSEE

CITY           SKY/WX    TMP DP  RH WIND       PRES   REMARKS
KNOXVILLE      RAIN      64  64 100 S14       30.30R FOG
OAK RIDGE      CLOUDY    67  62  84 VRB5      30.31S
GATLINBURG     CLOUDY    61  57  88 N5        30.31R FOG
MORRISTOWN     CLOUDY    61  57  88 CALM      30.30F
JACKSBORO      CLOUDY    70  61  73 S14       30.31S
$$

TNZ083-085-099-211100-
SOUTHEAST TENNESSEE

CITY           SKY/WX    TMP DP  RH WIND       PRES   REMARKS
CHATTANOOGA    MOCLDY    67  62  84 SE7       30.30F
$$

SKY/WX REPORTED AS FAIR MEANS FEW OR NO CLOUDS BELOW
12 THOUSAND FEET.





USA.gov is the U.S. government's official web portal to all federal, state and local government web resources and services.